"Sample Date","Sample Time","Sensor Name","Sample Value","Units","Flow Rate","Sample Interval","Sample Volume","Laser Status","Number Channels","Micron Size 0","Counts/Channel 0","Micron Size 1","Counts/Channel 1","Micron Size 2","Counts/Channel 2","Micron Size 3","Counts/Channel 3","Micron Size 4","Counts/Channel 4","Micron Size 5","Counts/Channel 5","Micron Size 6","Counts/Channel 6","Micron Size 7","Counts/Channel 7","Micron Size 8","Counts/Channel 8","Micron Size 9","Counts/Channel 9","Micron Size 10","Counts/Channel 10","Micron Size 11","Counts/Channel 11","Micron Size 12","Counts/Channel 12","Micron Size 13","Counts/Channel 13","Micron Size 14","Counts/Channel 14","Micron Size 15","Counts/Channel 15","Micron Size 16","Counts/Channel 16","Micron Size 17","Counts/Channel 17","Micron Size 18","Counts/Channel 18","Micron Size 19","Counts/Channel 19","Micron Size 20","Counts/Channel 20","Micron Size 21","Counts/Channel 21","Micron Size 22","Counts/Channel 22","Micron Size 23","Counts/Channel 23","Micron Size 24","Counts/Channel 24","Micron Size 25","Counts/Channel 25","Micron Size 26","Counts/Channel 26","Micron Size 27","Counts/Channel 27","Micron Size 28","Counts/Channel 28","Micron Size 29","Counts/Channel 29","Micron Size 30","Counts/Channel 30","Micron Size 31","Counts/Channel 31"
"07/04/06","13:00:01","AMMA06",57772.000,"cc",28349.701,6.00,2834.970,1,6,0.100,34219.000,0.200,20254.000,0.300,2267.000,0.500,636.000,1.000,396.000,5.000,0
"07/04/06","13:00:07","AMMA06",57808.000,"cc",28307.582,6.00,2830.758,1,6,0.100,34209.000,0.200,20227.000,0.300,2268.000,0.500,658.000,1.000,444.000,5.000,2.000
"07/04/06","13:00:13","AMMA06",57817.000,"cc",28285.225,6.00,2828.523,1,6,0.100,34412.000,0.200,20134.000,0.300,2213.000,0.500,614.000,1.000,443.000,5.000,1.000
"07/04/06","13:00:19","AMMA06",58479.000,"cc",28285.375,6.00,2828.538,1,6,0.100,34928.000,0.200,20286.000,0.300,2219.000,0.500,654.000,1.000,392.000,5.000,0
"07/04/06","13:00:25","AMMA06",58236.000,"cc",28356.873,6.00,2835.688,1,6,0.100,34878.000,0.200,19958.000,0.300,2359.000,0.500,664.000,1.000,377.000,5.000,0
"07/04/06","13:00:31","AMMA06",58359.000,"cc",28358.041,6.00,2835.804,1,6,0.100,35038.000,0.200,20018.000,0.300,2254.000,0.500,640.000,1.000,408.000,5.000,1.000
"07/04/06","13:00:37","AMMA06",57609.000,"cc",28268.344,6.00,2826.835,1,6,0.100,34372.000,0.200,19933.000,0.300,2251.000,0.500,619.000,1.000,433.000,5.000,1.000
"07/04/06","13:00:43","AMMA06",58081.000,"cc",28317.303,6.00,2831.731,1,6,0.100,34822.000,0.200,19992.000,0.300,2219.000,0.500,641.000,1.000,406.000,5.000,1.000
"07/04/06","13:00:49","AMMA06",57918.000,"cc",28275.938,6.00,2827.594,1,6,0.100,34656.000,0.200,19904.000,0.300,2241.000,0.500,636.000,1.000,479.000,5.000,2.000
"07/04/06","13:00:55","AMMA06",58252.000,"cc",28335.957,6.00,2833.596,1,6,0.100,35075.000,0.200,19969.000,0.300,2204.000,0.500,625.000,1.000,378.000,5.000,1.000
"07/04/06","13:01:01","AMMA06",58251.000,"cc",28382.488,6.00,2838.249,1,6,0.100,35209.000,0.200,19727.000,0.300,2230.000,0.500,659.000,1.000,426.000,5.000,0
"07/04/06","13:01:07","AMMA06",58076.000,"cc",28310.221,6.00,2831.022,1,6,0.100,35052.000,0.200,19742.000,0.300,2206.000,0.500,662.000,1.000,414.000,5.000,0
"07/04/06","13:01:13","AMMA06",57445.000,"cc",28251.059,6.00,2825.106,1,6,0.100,34694.000,0.200,19601.000,0.300,2093.000,0.500,661.000,1.000,396.000,5.000,0
"07/04/06","13:01:19","AMMA06",58220.000,"cc",28306.006,6.00,2830.601,1,6,0.100,35330.000,0.200,19637.000,0.300,2198.000,0.500,620.000,1.000,435.000,5.000,0
"07/04/06","13:01:25","AMMA06",57665.000,"cc",28351.559,6.00,2835.156,1,6,0.100,34705.000,0.200,19661.000,0.300,2139.000,0.500,742.000,1.000,418.000,5.000,0
"07/04/06","13:01:31","AMMA06",57602.000,"cc",28299.957,6.00,2829.996,1,6,0.100,34744.000,0.200,19560.000,0.300,2204.000,0.500,660.000,1.000,434.000,5.000,0
"07/04/06","13:01:37","AMMA06",58443.000,"cc",28352.068,6.00,2835.207,1,6,0.100,35448.000,0.200,19752.000,0.300,2166.000,0.500,637.000,1.000,439.000,5.000,1.000
"07/04/06","13:01:43","AMMA06",57954.000,"cc",28309.637,6.00,2830.964,1,6,0.100,35365.000,0.200,19307.000,0.300,2209.000,0.500,653.000,1.000,420.000,5.000,0
"07/04/06","13:01:49","AMMA06",57956.000,"cc",28349.682,6.00,2834.968,1,6,0.100,35058.000,0.200,19615.000,0.300,2201.000,0.500,634.000,1.000,448.000,5.000,0
"07/04/06","13:01:55","AMMA06",57938.000,"cc",28306.520,6.00,2830.652,1,6,0.100,35147.000,0.200,19585.000,0.300,2156.000,0.500,634.000,1.000,416.000,5.000,0
"07/04/06","13:02:01","AMMA06",57711.000,"cc",28272.299,6.00,2827.230,1,6,0.100,35158.000,0.200,19360.000,0.300,2146.000,0.500,607.000,1.000,440.000,5.000,0
"07/04/06","13:02:07","AMMA06",57781.000,"cc",28358.678,6.00,2835.868,1,6,0.100,34980.000,0.200,19663.000,0.300,2072.000,0.500,651.000,1.000,415.000,5.000,0
"07/04/06","13:02:13","AMMA06",57757.000,"cc",28328.981,6.00,2832.898,1,6,0.100,35360.000,0.200,19230.000,0.300,2135.000,0.500,614.000,1.000,417.000,5.000,1.000
"07/04/06","13:02:19","AMMA06",57757.000,"cc",28315.789,6.00,2831.579,1,6,0.100,35399.000,0.200,19270.000,0.300,2070.000,0.500,597.000,1.000,420.000,5.000,1.000
"07/04/06","13:02:25","AMMA06",58592.000,"cc",28226.043,6.00,2822.605,1,6,0.100,36031.000,0.200,19394.000,0.300,2080.000,0.500,668.000,1.000,418.000,5.000,1.000
"07/04/06","13:02:31","AMMA06",58009.000,"cc",28336.082,6.00,2833.608,1,6,0.100,35548.000,0.200,19264.000,0.300,2078.000,0.500,688.000,1.000,431.000,5.000,0
"07/04/06","13:02:37","AMMA06",57917.000,"cc",28309.607,6.00,2830.961,1,6,0.100,35448.000,0.200,19366.000,0.300,2080.000,0.500,625.000,1.000,398.000,5.000,0
"07/04/06","13:02:43","AMMA06",57681.000,"cc",28334.744,6.00,2833.475,1,6,0.100,35638.000,0.200,19000.000,0.300,2056.000,0.500,590.000,1.000,397.000,5.000,0
"07/04/06","13:02:49","AMMA06",57760.000,"cc",28319.967,6.00,2831.997,1,6,0.100,35535.000,0.200,19058.000,0.300,2069.000,0.500,686.000,1.000,412.000,5.000,0
"07/04/06","13:02:55","AMMA06",57890.000,"cc",28359.344,6.00,2835.935,1,6,0.100,35595.000,0.200,19159.000,0.300,2068.000,0.500,648.000,1.000,420.000,5.000,0
"07/04/06","13:03:01","AMMA06",57287.000,"cc",28294.373,6.00,2829.438,1,6,0.100,35036.000,0.200,19133.000,0.300,2105.000,0.500,589.000,1.000,424.000,5.000,0
"07/04/06","13:03:07","AMMA06",57513.000,"cc",28251.602,6.00,2825.160,1,6,0.100,35333.000,0.200,19061.000,0.300,2114.000,0.500,630.000,1.000,375.000,5.000,0
"07/04/06","13:03:13","AMMA06",57888.000,"cc",28340.361,6.00,2834.036,1,6,0.100,35410.000,0.200,19312.000,0.300,2141.000,0.500,623.000,1.000,402.000,5.000,0
"07/04/06","13:03:19","AMMA06",57676.000,"cc",28302.051,6.00,2830.205,1,6,0.100,35326.000,0.200,19318.000,0.300,2000.000,0.500,613.000,1.000,417.000,5.000,2.000
"07/04/06","13:03:25","AMMA06",57706.000,"cc",28305.391,6.00,2830.539,1,6,0.100,35440.000,0.200,19124.000,0.300,2111.000,0.500,619.000,1.000,412.000,5.000,0
"07/04/06","13:03:31","AMMA06",58463.000,"cc",28306.482,6.00,2830.648,1,6,0.100,35616.000,0.200,19740.000,0.300,2082.000,0.500,605.000,1.000,420.000,5.000,0
"07/04/06","13:03:37","AMMA06",57787.000,"cc",28338.522,6.00,2833.852,1,6,0.100,35165.000,0.200,19367.000,0.300,2186.000,0.500,665.000,1.000,404.000,5.000,0
"07/04/06","13:03:43","AMMA06",58100.000,"cc",28328.139,6.00,2832.814,1,6,0.100,35066.000,0.200,19794.000,0.300,2173.000,0.500,685.000,1.000,382.000,5.000,0
"07/04/06","13:03:49","AMMA06",58211.000,"cc",28330.502,6.00,2833.050,1,6,0.100,35180.000,0.200,19764.000,0.300,2233.000,0.500,635.000,1.000,399.000,5.000,0
"07/04/06","13:03:55","AMMA06",58356.000,"cc",28317.400,6.00,2831.740,1,6,0.100,35276.000,0.200,19791.000,0.300,2220.000,0.500,641.000,1.000,427.000,5.000,1.000
"07/04/06","13:04:01","AMMA06",58130.000,"cc",28361.465,6.00,2836.147,1,6,0.100,35138.000,0.200,19767.000,0.300,2220.000,0.500,591.000,1.000,414.000,5.000,0
"07/04/06","13:04:07","AMMA06",58682.000,"cc",28283.418,6.00,2828.342,1,6,0.100,35467.000,0.200,19924.000,0.300,2237.000,0.500,632.000,1.000,421.000,5.000,1.000
"07/04/06","13:04:13","AMMA06",58519.000,"cc",28287.096,6.00,2828.710,1,6,0.100,34939.000,0.200,20327.000,0.300,2237.000,0.500,641.000,1.000,375.000,5.000,0
"07/04/06","13:04:19","AMMA06",58507.000,"cc",28323.453,6.00,2832.346,1,6,0.100,34889.000,0.200,20258.000,0.300,2323.000,0.500,647.000,1.000,389.000,5.000,1.000
"07/04/06","13:04:25","AMMA06",59101.000,"cc",28310.131,6.00,2831.013,1,6,0.100,35155.000,0.200,20625.000,0.300,2280.000,0.500,643.000,1.000,398.000,5.000,0
"07/04/06","13:04:31","AMMA06",58672.000,"cc",28299.356,6.00,2829.936,1,6,0.100,34728.000,0.200,20532.000,0.300,2301.000,0.500,676.000,1.000,435.000,5.000,0
"07/04/06","13:04:37","AMMA06",58873.000,"cc",28302.615,6.00,2830.262,1,6,0.100,35015.000,0.200,20500.000,0.300,2331.000,0.500,631.000,1.000,396.000,5.000,0
"07/04/06","13:04:43","AMMA06",59104.000,"cc",28366.055,6.00,2836.606,1,6,0.100,35168.000,0.200,20587.000,0.300,2301.000,0.500,668.000,1.000,379.000,5.000,1.000
"07/04/06","13:04:49","AMMA06",59051.000,"cc",28306.191,6.00,2830.619,1,6,0.100,35023.000,0.200,20726.000,0.300,2290.000,0.500,638.000,1.000,374.000,5.000,0
"07/04/06","13:04:55","AMMA06",59003.000,"cc",28337.533,6.00,2833.753,1,6,0.100,34936.000,0.200,20695.000,0.300,2282.000,0.500,658.000,1.000,432.000,5.000,0
"07/04/06","13:05:01","AMMA06",59210.000,"cc",28292.770,6.00,2829.277,1,6,0.100,35188.000,0.200,20660.000,0.300,2325.000,0.500,609.000,1.000,428.000,5.000,0
"07/04/06","13:05:07","AMMA06",58908.000,"cc",28321.703,6.00,2832.170,1,6,0.100,34779.000,0.200,20826.000,0.300,2283.000,0.500,583.000,1.000,437.000,5.000,0
"07/04/06","13:05:13","AMMA06",59177.000,"cc",28354.326,6.00,2835.433,1,6,0.100,35190.000,0.200,20610.000,0.300,2311.000,0.500,632.000,1.000,434.000,5.000,0
"07/04/06","13:05:19","AMMA06",58830.000,"cc",28349.732,6.00,2834.973,1,6,0.100,34569.000,0.200,20828.000,0.300,2362.000,0.500,652.000,1.000,418.000,5.000,1.000
"07/04/06","13:05:25","AMMA06",58991.000,"cc",28266.783,6.00,2826.679,1,6,0.100,34696.000,0.200,20904.000,0.300,2339.000,0.500,637.000,1.000,415.000,5.000,0
"07/04/06","13:05:31","AMMA06",59221.000,"cc",28309.539,6.00,2830.954,1,6,0.100,34987.000,0.200,20951.000,0.300,2247.000,0.500,611.000,1.000,424.000,5.000,1.000
"07/04/06","13:05:37","AMMA06",58962.000,"cc",28292.645,6.00,2829.265,1,6,0.100,34953.000,0.200,20702.000,0.300,2284.000,0.500,605.000,1.000,417.000,5.000,1.000
"07/04/06","13:05:43","AMMA06",59375.000,"cc",28340.531,6.00,2834.053,1,6,0.100,34737.000,0.200,21336.000,0.300,2287.000,0.500,615.000,1.000,400.000,5.000,0
"07/04/06","13:05:49","AMMA06",58945.000,"cc",28244.223,6.00,2824.422,1,6,0.100,34677.000,0.200,21057.000,0.300,2278.000,0.500,572.000,1.000,361.000,5.000,0
"07/04/06","13:05:55","AMMA06",59810.000,"cc",28293.404,6.00,2829.341,1,6,0.100,35511.000,0.200,20984.000,0.300,2255.000,0.500,639.000,1.000,420.000,5.000,1.000
"07/04/06","13:06:01","AMMA06",59198.000,"cc",28408.994,6.00,2840.900,1,6,0.100,34852.000,0.200,20900.000,0.300,2354.000,0.500,637.000,1.000,455.000,5.000,0
"07/04/06","13:06:07","AMMA06",59418.000,"cc",28300.092,6.00,2830.009,1,6,0.100,34988.000,0.200,21091.000,0.300,2297.000,0.500,626.000,1.000,416.000,5.000,0
"07/04/06","13:06:13","AMMA06",59225.000,"cc",28310.586,6.00,2831.059,1,6,0.100,34889.000,0.200,20976.000,0.300,2316.000,0.500,616.000,1.000,428.000,5.000,0
"07/04/06","13:06:19","AMMA06",58615.000,"cc",28360.863,6.00,2836.086,1,6,0.100,34278.000,0.200,20947.000,0.300,2332.000,0.500,599.000,1.000,457.000,5.000,2.000
"07/04/06","13:06:25","AMMA06",58995.000,"cc",28338.465,6.00,2833.847,1,6,0.100,34664.000,0.200,21044.000,0.300,2304.000,0.500,619.000,1.000,364.000,5.000,0
"07/04/06","13:06:31","AMMA06",58836.000,"cc",28322.803,6.00,2832.281,1,6,0.100,34843.000,0.200,20730.000,0.300,2309.000,0.500,580.000,1.000,374.000,5.000,0
"07/04/06","13:06:37","AMMA06",58234.000,"cc",28312.305,6.00,2831.231,1,6,0.100,34238.000,0.200,20702.000,0.300,2283.000,0.500,596.000,1.000,413.000,5.000,2.000
"07/04/06","13:06:43","AMMA06",58588.000,"cc",28293.289,6.00,2829.329,1,6,0.100,34687.000,0.200,20574.000,0.300,2328.000,0.500,617.000,1.000,380.000,5.000,2.000
"07/04/06","13:06:49","AMMA06",58062.000,"cc",28289.781,6.00,2828.978,1,6,0.100,34369.000,0.200,20454.000,0.300,2255.000,0.500,616.000,1.000,368.000,5.000,0
"07/04/06","13:06:55","AMMA06",58399.000,"cc",28361.832,6.00,2836.183,1,6,0.100,34439.000,0.200,20705.000,0.300,2290.000,0.500,595.000,1.000,369.000,5.000,1.000
"07/04/06","13:07:01","AMMA06",58214.000,"cc",28307.088,6.00,2830.709,1,6,0.100,34518.000,0.200,20557.000,0.300,2170.000,0.500,583.000,1.000,386.000,5.000,0
"07/04/06","13:07:07","AMMA06",58507.000,"cc",28312.828,6.00,2831.283,1,6,0.100,34703.000,0.200,20493.000,0.300,2282.000,0.500,585.000,1.000,443.000,5.000,1.000
"07/04/06","13:07:13","AMMA06",58437.000,"cc",28330.654,6.00,2833.066,1,6,0.100,34643.000,0.200,20618.000,0.300,2241.000,0.500,577.000,1.000,358.000,5.000,0
"07/04/06","13:07:19","AMMA06",58261.000,"cc",28262.084,6.00,2826.209,1,6,0.100,34462.000,0.200,20585.000,0.300,2296.000,0.500,566.000,1.000,352.000,5.000,0
"07/04/06","13:07:25","AMMA06",57996.000,"cc",28343.432,6.00,2834.343,1,6,0.100,34398.000,0.200,20389.000,0.300,2245.000,0.500,583.000,1.000,379.000,5.000,2.000
"07/04/06","13:07:31","AMMA06",58163.000,"cc",28344.441,6.00,2834.444,1,6,0.100,34727.000,0.200,20249.000,0.300,2212.000,0.500,582.000,1.000,393.000,5.000,0
"07/04/06","13:07:37","AMMA06",57960.000,"cc",28350.231,6.00,2835.023,1,6,0.100,34736.000,0.200,20070.000,0.300,2181.000,0.500,578.000,1.000,395.000,5.000,0
"07/04/06","13:07:43","AMMA06",58066.000,"cc",28254.434,6.00,2825.444,1,6,0.100,34774.000,0.200,20114.000,0.300,2222.000,0.500,559.000,1.000,396.000,5.000,1.000
"07/04/06","13:07:49","AMMA06",57457.000,"cc",28287.752,6.00,2828.775,1,6,0.100,34580.000,0.200,19805.000,0.300,2112.000,0.500,553.000,1.000,407.000,5.000,0
"07/04/06","13:07:55","AMMA06",58411.000,"cc",28298.408,6.00,2829.841,1,6,0.100,35449.000,0.200,19904.000,0.300,2096.000,0.500,610.000,1.000,350.000,5.000,2.000
"07/04/06","13:08:01","AMMA06",57811.000,"cc",28338.609,6.00,2833.861,1,6,0.100,34926.000,0.200,19735.000,0.300,2163.000,0.500,600.000,1.000,386.000,5.000,1.000
"07/04/06","13:08:07","AMMA06",58039.000,"cc",28344.170,6.00,2834.417,1,6,0.100,35191.000,0.200,19719.000,0.300,2092.000,0.500,623.000,1.000,414.000,5.000,0
"07/04/06","13:08:13","AMMA06",57875.000,"cc",28269.940,6.00,2826.994,1,6,0.100,35278.000,0.200,19497.000,0.300,2109.000,0.500,621.000,1.000,369.000,5.000,1.000
"07/04/06","13:08:19","AMMA06",57779.000,"cc",28323.727,6.00,2832.373,1,6,0.100,35123.000,0.200,19596.000,0.300,2105.000,0.500,576.000,1.000,379.000,5.000,0
"07/04/06","13:08:25","AMMA06",57853.000,"cc",28350.029,6.00,2835.003,1,6,0.100,35318.000,0.200,19384.000,0.300,2169.000,0.500,601.000,1.000,381.000,5.000,0
"07/04/06","13:08:31","AMMA06",58255.000,"cc",28311.947,6.00,2831.195,1,6,0.100,35415.000,0.200,19736.000,0.300,2132.000,0.500,601.000,1.000,370.000,5.000,1.000
"07/04/06","13:08:37","AMMA06",58034.000,"cc",28364.361,6.00,2836.436,1,6,0.100,35325.000,0.200,19641.000,0.300,2055.000,0.500,603.000,1.000,410.000,5.000,0
"07/04/06","13:08:43","AMMA06",58110.000,"cc",28258.813,6.00,2825.881,1,6,0.100,35595.000,0.200,19489.000,0.300,2062.000,0.500,575.000,1.000,389.000,5.000,0
"07/04/06","13:08:49","AMMA06",58140.000,"cc",28392.979,6.00,2839.298,1,6,0.100,35340.000,0.200,19683.000,0.300,2105.000,0.500,614.000,1.000,398.000,5.000,0
"07/04/06","13:08:55","AMMA06",57975.000,"cc",28283.533,6.00,2828.354,1,6,0.100,35485.000,0.200,19398.000,0.300,2083.000,0.500,612.000,1.000,397.000,5.000,0
"07/04/06","13:09:01","AMMA06",57680.000,"cc",28229.315,6.00,2822.932,1,6,0.100,35207.000,0.200,19467.000,0.300,2041.000,0.500,605.000,1.000,360.000,5.000,0
"07/04/06","13:09:07","AMMA06",58246.000,"cc",28340.123,6.00,2834.013,1,6,0.100,35808.000,0.200,19355.000,0.300,2100.000,0.500,579.000,1.000,403.000,5.000,1.000
"07/04/06","13:09:13","AMMA06",57794.000,"cc",28289.307,6.00,2828.931,1,6,0.100,35410.000,0.200,19425.000,0.300,2008.000,0.500,561.000,1.000,390.000,5.000,0
"07/04/06","13:09:19","AMMA06",57620.000,"cc",28322.279,6.00,2832.228,1,6,0.100,35494.000,0.200,19122.000,0.300,2028.000,0.500,615.000,1.000,360.000,5.000,1.000
"07/04/06","13:09:25","AMMA06",57682.000,"cc",28320.463,6.00,2832.046,1,6,0.100,35463.000,0.200,19208.000,0.300,2063.000,0.500,578.000,1.000,370.000,5.000,0
"07/04/06","13:09:31","AMMA06",57977.000,"cc",28338.803,6.00,2833.880,1,6,0.100,35691.000,0.200,19365.000,0.300,1996.000,0.500,546.000,1.000,379.000,5.000,0
"07/04/06","13:09:37","AMMA06",58356.000,"cc",28345.699,6.00,2834.570,1,6,0.100,36119.000,0.200,19168.000,0.300,2064.000,0.500,591.000,1.000,414.000,5.000,0
"07/04/06","13:09:43","AMMA06",57984.000,"cc",28312.908,6.00,2831.291,1,6,0.100,35807.000,0.200,19098.000,0.300,2041.000,0.500,624.000,1.000,414.000,5.000,0
"07/04/06","13:09:49","AMMA06",57957.000,"cc",28306.414,6.00,2830.642,1,6,0.100,35964.000,0.200,18948.000,0.300,2088.000,0.500,597.000,1.000,360.000,5.000,0
"07/04/06","13:09:55","AMMA06",57597.000,"cc",28266.658,6.00,2826.666,1,6,0.100,35533.000,0.200,19103.000,0.300,2028.000,0.500,547.000,1.000,386.000,5.000,0
"07/04/06","13:10:01","AMMA06",57758.000,"cc",28305.893,6.00,2830.589,1,6,0.100,35962.000,0.200,18787.000,0.300,2049.000,0.500,606.000,1.000,354.000,5.000,0
"07/04/06","13:10:07","AMMA06",57684.000,"cc",28361.356,6.00,2836.136,1,6,0.100,35808.000,0.200,18890.000,0.300,2026.000,0.500,583.000,1.000,376.000,5.000,1.000
"07/04/06","13:10:13","AMMA06",58093.000,"cc",28325.006,6.00,2832.501,1,6,0.100,36100.000,0.200,18967.000,0.300,2009.000,0.500,607.000,1.000,410.000,5.000,0
"07/04/06","13:10:19","AMMA06",57774.000,"cc",28310.465,6.00,2831.047,1,6,0.100,35759.000,0.200,19001.000,0.300,2052.000,0.500,592.000,1.000,370.000,5.000,0
"07/04/06","13:10:25","AMMA06",57797.000,"cc",28358.184,6.00,2835.819,1,6,0.100,35788.000,0.200,18958.000,0.300,2032.000,0.500,574.000,1.000,445.000,5.000,0
"07/04/06","13:10:31","AMMA06",57817.000,"cc",28252.613,6.00,2825.262,1,6,0.100,35793.000,0.200,19025.000,0.300,2040.000,0.500,581.000,1.000,378.000,5.000,0
"07/04/06","13:10:37","AMMA06",57820.000,"cc",28278.504,6.00,2827.851,1,6,0.100,35767.000,0.200,18947.000,0.300,2121.000,0.500,570.000,1.000,415.000,5.000,0
"07/04/06","13:10:43","AMMA06",57726.000,"cc",28362.016,6.00,2836.202,1,6,0.100,35784.000,0.200,18920.000,0.300,2026.000,0.500,627.000,1.000,368.000,5.000,1.000
"07/04/06","13:10:49","AMMA06",57651.000,"cc",28305.537,6.00,2830.554,1,6,0.100,35390.000,0.200,19213.000,0.300,2073.000,0.500,582.000,1.000,393.000,5.000,0
"07/04/06","13:10:55","AMMA06",57602.000,"cc",28355.287,6.00,2835.529,1,6,0.100,35590.000,0.200,18931.000,0.300,2084.000,0.500,605.000,1.000,391.000,5.000,1.000
"07/04/06","13:11:01","AMMA06",57749.000,"cc",28320.268,6.00,2832.027,1,6,0.100,35743.000,0.200,19020.000,0.300,2013.000,0.500,581.000,1.000,390.000,5.000,2.000
"07/04/06","13:11:07","AMMA06",57662.000,"cc",28340.209,6.00,2834.021,1,6,0.100,35660.000,0.200,19042.000,0.300,2023.000,0.500,557.000,1.000,379.000,5.000,1.000
"07/04/06","13:11:13","AMMA06",57608.000,"cc",28337.772,6.00,2833.777,1,6,0.100,35760.000,0.200,18809.000,0.300,2045.000,0.500,593.000,1.000,401.000,5.000,0
"07/04/06","13:11:19","AMMA06",57579.000,"cc",28289.770,6.00,2828.977,1,6,0.100,35464.000,0.200,19052.000,0.300,2026.000,0.500,639.000,1.000,398.000,5.000,0
"07/04/06","13:11:25","AMMA06",57575.000,"cc",28342.709,6.00,2834.271,1,6,0.100,35507.000,0.200,19055.000,0.300,2061.000,0.500,568.000,1.000,384.000,5.000,0
"07/04/06","13:11:31","AMMA06",57642.000,"cc",28267.041,6.00,2826.704,1,6,0.100,35206.000,0.200,19265.000,0.300,2096.000,0.500,648.000,1.000,426.000,5.000,1.000
"07/04/06","13:11:37","AMMA06",57765.000,"cc",28284.258,6.00,2828.426,1,6,0.100,35218.000,0.200,19459.000,0.300,2092.000,0.500,625.000,1.000,371.000,5.000,0
"07/04/06","13:11:43","AMMA06",58033.000,"cc",28353.992,6.00,2835.399,1,6,0.100,35471.000,0.200,19290.000,0.300,2222.000,0.500,666.000,1.000,384.000,5.000,0
"07/04/06","13:11:49","AMMA06",57884.000,"cc",28340.262,6.00,2834.026,1,6,0.100,35409.000,0.200,19329.000,0.300,2124.000,0.500,629.000,1.000,393.000,5.000,0
"07/04/06","13:11:55","AMMA06",57776.000,"cc",28331.705,6.00,2833.171,1,6,0.100,35203.000,0.200,19340.000,0.300,2194.000,0.500,632.000,1.000,407.000,5.000,0
"07/04/06","13:12:01","AMMA06",58224.000,"cc",28316.611,6.00,2831.661,1,6,0.100,35359.000,0.200,19668.000,0.300,2197.000,0.500,579.000,1.000,421.000,5.000,0
"07/04/06","13:12:07","AMMA06",58452.000,"cc",28290.195,6.00,2829.020,1,6,0.100,35258.000,0.200,19994.000,0.300,2151.000,0.500,652.000,1.000,397.000,5.000,0
"07/04/06","13:12:13","AMMA06",58073.000,"cc",28286.357,6.00,2828.636,1,6,0.100,35107.000,0.200,19840.000,0.300,2158.000,0.500,588.000,1.000,379.000,5.000,1.000
"07/04/06","13:12:19","AMMA06",58370.000,"cc",28269.385,6.00,2826.939,1,6,0.100,35414.000,0.200,19784.000,0.300,2151.000,0.500,639.000,1.000,382.000,5.000,0
"07/04/06","13:12:25","AMMA06",57857.000,"cc",28359.568,6.00,2835.957,1,6,0.100,35038.000,0.200,19667.000,0.300,2194.000,0.500,579.000,1.000,379.000,5.000,0
"07/04/06","13:12:31","AMMA06",58785.000,"cc",28352.059,6.00,2835.206,1,6,0.100,35301.000,0.200,20150.000,0.300,2251.000,0.500,648.000,1.000,435.000,5.000,0
"07/04/06","13:12:37","AMMA06",57997.000,"cc",28280.902,6.00,2828.090,1,6,0.100,34978.000,0.200,19790.000,0.300,2237.000,0.500,606.000,1.000,385.000,5.000,1.000
"07/04/06","13:12:43","AMMA06",58031.000,"cc",28323.695,6.00,2832.370,1,6,0.100,35170.000,0.200,19690.000,0.300,2149.000,0.500,602.000,1.000,420.000,5.000,0
"07/04/06","13:12:49","AMMA06",58255.000,"cc",28366.088,6.00,2836.609,1,6,0.100,35120.000,0.200,19932.000,0.300,2177.000,0.500,601.000,1.000,425.000,5.000,0
"07/04/06","13:12:55","AMMA06",58022.000,"cc",28299.725,6.00,2829.973,1,6,0.100,35044.000,0.200,19792.000,0.300,2159.000,0.500,637.000,1.000,390.000,5.000,0
"07/04/06","13:13:01","AMMA06",58126.000,"cc",28302.377,6.00,2830.238,1,6,0.100,35211.000,0.200,19710.000,0.300,2202.000,0.500,608.000,1.000,395.000,5.000,0
"07/04/06","13:13:07","AMMA06",58361.000,"cc",28272.129,6.00,2827.213,1,6,0.100,35150.000,0.200,19947.000,0.300,2278.000,0.500,569.000,1.000,417.000,5.000,0
"07/04/06","13:13:13","AMMA06",58151.000,"cc",28344.879,6.00,2834.488,1,6,0.100,34923.000,0.200,20037.000,0.300,2164.000,0.500,625.000,1.000,402.000,5.000,0
"07/04/06","13:13:19","AMMA06",57443.000,"cc",28336.295,6.00,2833.630,1,6,0.100,34392.000,0.200,19854.000,0.300,2143.000,0.500,627.000,1.000,426.000,5.000,1.000
"07/04/06","13:13:25","AMMA06",58057.000,"cc",28357.242,6.00,2835.724,1,6,0.100,34692.000,0.200,20058.000,0.300,2288.000,0.500,646.000,1.000,373.000,5.000,0
"07/04/06","13:13:31","AMMA06",57850.000,"cc",28266.000,6.00,2826.600,1,6,0.100,34825.000,0.200,19784.000,0.300,2228.000,0.500,579.000,1.000,434.000,5.000,0
"07/04/06","13:13:37","AMMA06",58202.000,"cc",28326.297,6.00,2832.630,1,6,0.100,34888.000,0.200,20116.000,0.300,2175.000,0.500,608.000,1.000,413.000,5.000,2.000
"07/04/06","13:13:43","AMMA06",58222.000,"cc",28290.318,6.00,2829.032,1,6,0.100,34871.000,0.200,20138.000,0.300,2194.000,0.500,604.000,1.000,415.000,5.000,0
"07/04/06","13:13:49","AMMA06",58395.000,"cc",28294.537,6.00,2829.454,1,6,0.100,34954.000,0.200,20195.000,0.300,2245.000,0.500,604.000,1.000,397.000,5.000,0
"07/04/06","13:13:55","AMMA06",57688.000,"cc",28376.527,6.00,2837.653,1,6,0.100,34267.000,0.200,20177.000,0.300,2256.000,0.500,593.000,1.000,395.000,5.000,0
"07/04/06","13:14:01","AMMA06",57714.000,"cc",28324.773,6.00,2832.478,1,6,0.100,34602.000,0.200,19798.000,0.300,2268.000,0.500,604.000,1.000,442.000,5.000,0
"07/04/06","13:14:07","AMMA06",57543.000,"cc",28311.674,6.00,2831.168,1,6,0.100,33986.000,0.200,20311.000,0.300,2240.000,0.500,633.000,1.000,373.000,5.000,0